Location: Adrasan
(36.3319°N, 30.4314°E)
Time: 11:43:23
(UTC+00:00)

ATLAS 2AS CENTAUR R/B - Pass Details

Date: 09 December 2023
Orbit: 1004 x 1207 km, 63.7° (Epoch: 18 February)

Event Time Altitude Azimuth Distance (km) Brightness Sun altitude
Rises 15:51:50 0° 332° (NNW) 3,886 5.8 -13.5°
Reaches altitude 10° 15:54:38 10° 337° (NNW) 2,898 5.0 -14.1°
Maximum altitude 16:01:16 53° 54° (NE) 1,252 2.7 -15.3°
Drops below altitude 10° 16:07:38 10° 130° (SE) 2,785 4.6 -16.6°
Sets 16:10:16 0° 135° (SE) 3,722 5.3 -17.1°
